EW1107 Weather Reports


Display with metric or nautical units.
time (UTC)temp
F
wind
direction
speed
MPH
gust
MPH
rain 1hr
in
rain 24hr
in
rain mn
in
humidity
%
barometer
mb
20260902210553 60 294 0.0 0.0 0.00 0.00 0.00 86 1017.8
20260902210051 60 294 0.0 0.0 0.00 0.00 0.00 86 1017.8
20260902205554 60 294 0.0 0.0 0.00 0.00 0.00 86 1017.9
20260902205050 60 294 0.0 0.0 0.00 0.00 0.00 86 1017.9
20260902204550 61 294 0.0 0.0 0.00 0.00 0.00 86 1017.9
20260902204049 61 294 0.0 0.0 0.00 0.00 0.00 86 1017.9
20260902203553 61 294 0.0 0.0 0.00 0.00 0.00 86 1018.0
20260902203049 61 294 0.0 0.0 0.00 0.00 0.00 86 1017.9
20260902202549 61 294 0.0 0.0 0.00 0.00 0.00 86 1018.0
20260902202049 61 294 0.0 0.0 0.00 0.00 0.00 86 1018.0
20260902201556 61 294 0.0 0.0 0.00 0.00 0.00 86 1018.0
20260902201048 61 294 0.0 0.0 0.00 0.00 0.00 86 1018.0
20260902200547 61 294 0.0 0.0 0.00 0.00 0.00 85 1018.1
20260902200047 61 294 0.0 0.0 0.00 0.00 0.00 85 1018.2
20260902195548 62 294 0.0 0.0 0.00 0.00 0.00 85 1018.2
20260902195047 62 294 0.0 0.0 0.00 0.00 0.00 85 1018.2
20260902194547 62 294 0.0 0.0 0.00 0.00 0.00 84 1018.2
20260902194047 62 294 0.0 0.0 0.00 0.00 0.00 84 1018.2
20260902193546 62 294 0.0 0.0 0.00 0.00 0.00 84 1018.2
20260902193100 62 294 0.0 0.0 0.00 0.00 0.00 84 1018.3
20260902192549 62 294 0.0 0.0 0.00 0.00 0.00 84 1018.3
20260902192046 62 294 0.0 0.0 0.00 0.00 0.00 83 1018.3
20260902191547 63 294 0.0 0.0 0.00 0.00 0.00 83 1018.2
20260902191048 63 294 0.0 0.0 0.00 0.00 0.00 82 1018.2
20260902190548 63 294 0.0 0.0 0.00 0.00 0.00 82 1018.3
20260902190046 63 294 0.0 0.0 0.00 0.00 0.00 82 1018.3
20260902185546 63 294 0.0 0.0 0.00 0.00 0.00 82 1018.4
20260902185048 63 294 0.0 0.0 0.00 0.00 0.00 81 1018.4
20260902184546 63 294 0.0 0.0 0.00 0.00 0.00 81 1018.4
20260902184145 63 294 0.0 0.0 0.00 0.00 0.00 81 1018.4
20260902183545 63 294 0.0 0.0 0.00 0.00 0.00 80 1018.3
20260902183056 64 294 0.0 0.0 0.00 0.00 0.00 80 1018.3
20260902182544 64 294 0.0 0.0 0.00 0.00 0.00 79 1018.3
20260902182044 64 294 0.0 0.0 0.00 0.00 0.00 78 1018.2
20260902181545 64 294 0.0 0.0 0.00 0.00 0.00 77 1018.2
20260902181045 65 294 0.0 0.0 0.00 0.00 0.00 76 1018.2
20260902180544 65 294 0.0 0.0 0.00 0.00 0.00 76 1018.2
20260902180043 66 294 0.0 0.0 0.00 0.00 0.00 75 1018.1
20260902175544 66 294 0.0 0.0 0.00 0.00 0.00 74 1018.1
20260902175043 66 294 0.0 0.0 0.00 0.00 0.00 73 1018.1
20260902174543 66 294 0.0 0.0 0.00 0.00 0.00 73 1018.1
20260902174045 67 294 0.0 0.0 0.00 0.00 0.00 72 1018.0
20260902173544 67 294 0.0 0.0 0.00 0.00 0.00 71 1018.0
20260902173043 67 294 0.0 0.0 0.00 0.00 0.00 71 1017.9
20260902172543 67 294 0.0 0.0 0.00 0.00 0.00 70 1017.9
20260902172042 68 294 0.0 0.0 0.00 0.00 0.00 70 1017.9
20260902171552 68 294 0.0 0.0 0.00 0.00 0.00 69 1017.8
20260902171046 68 294 0.0 0.0 0.00 0.00 0.00 68 1017.8
20260902170541 68 294 0.0 0.0 0.00 0.00 0.00 68 1017.9
20260902170041 69 294 0.0 0.0 0.00 0.00 0.00 67 1017.8
20260902165542 69 282 0.0 3.0 0.00 0.00 0.00 67 1017.9
20260902165042 69 282 0.0 3.0 0.00 0.00 0.00 66 1017.9
20260902164543 69 282 0.0 2.0 0.00 0.00 0.00 66 1017.9
20260902164041 69 282 0.0 2.0 0.00 0.00 0.00 66 1017.8
20260902163641 69 282 0.0 7.0 0.00 0.00 0.00 65 1017.8
20260902163046 70 282 0.0 7.0 0.00 0.00 0.00 64 1017.8
20260902162541 70 281 2.0 7.0 0.00 0.00 0.00 64 1017.8
20260902162044 70 254 2.0 9.0 0.00 0.00 0.00 63 1017.8
20260902161541 70 230 4.0 9.0 0.00 0.00 0.00 63 1017.9
20260902161043 70 300 0.0 11.0 0.00 0.00 0.00 63 1017.9
20260902160540 70 278 5.0 11.0 0.00 0.00 0.00 62 1017.9
20260902160040 70 311 6.0 13.0 0.00 0.00 0.00 62 1017.9
20260902155541 70 292 7.0 13.0 0.00 0.00 0.00 61 1017.9
20260902155040 70 271 2.0 14.0 0.00 0.00 0.00 61 1017.9
20260902154640 70 284 6.0 14.0 0.00 0.00 0.00 61 1017.9
20260902154027 70 331 7.0 13.0 0.00 0.00 0.00 60 1017.9
20260902153527 71 329 6.0 13.0 0.00 0.00 0.00 60 1017.9
20260902153043 71 303 8.0 15.0 0.00 0.00 0.00 59 1017.9
20260902152526 72 300 7.0 15.0 0.00 0.00 0.00 58 1018.0
20260902152026 72 293 8.0 12.0 0.00 0.00 0.00 57 1018.0
20260902151526 72 309 6.0 12.0 0.00 0.00 0.00 59 1018.1
20260902151026 72 273 4.0 19.0 0.00 0.00 0.00 58 1018.1
20260902150525 72 289 6.0 16.0 0.00 0.00 0.00 57 1018.1
20260902150026 73 311 4.0 12.0 0.00 0.00 0.00 57 1018.1
20260902145526 73 332 3.0 17.0 0.00 0.00 0.00 56 1018.1
20260902145027 73 271 12.0 24.0 0.00 0.00 0.00 56 1018.1
20260902144526 73 258 10.0 24.0 0.00 0.00 0.00 56 1018.1
20260902144024 73 272 7.0 19.0 0.00 0.00 0.00 56 1018.1
20260902143524 72 226 10.0 20.0 0.00 0.00 0.00 56 1018.1
20260902142524 73 296 7.0 15.0 0.00 0.00 0.00 56 1018.0
20260902142025 73 260 7.0 14.0 0.00 0.00 0.00 56 1018.1
20260902141523 73 203 5.0 19.0 0.00 0.00 0.00 56 1018.0
20260902141025 73 206 9.0 19.0 0.00 0.00 0.00 55 1017.9
20260902140523 73 307 7.0 18.0 0.00 0.00 0.00 56 1018.1
20260902140022 74 296 10.0 21.0 0.00 0.00 0.00 55 1018.1
20260902135522 73 262 9.0 21.0 0.00 0.00 0.00 55 1018.3
20260902135122 74 261 12.0 21.0 0.00 0.00 0.00 53 1018.4
20260902134523 74 288 9.0 24.0 0.00 0.00 0.00 54 1018.4
20260902134020 73 316 9.0 24.0 0.00 0.00 0.00 55 1018.4
20260902133520 74 275 8.0 24.0 0.00 0.00 0.00 53 1018.4
20260902133020 73 230 11.0 24.0 0.00 0.00 0.00 56 1018.4
20260902132523 74 312 8.0 20.0 0.00 0.00 0.00 57 1018.4
20260902132019 73 346 10.0 20.0 0.00 0.00 0.00 58 1018.4
20260902131535 72 307 8.0 25.0 0.00 0.00 0.00 60 1018.5
20260902131019 73 322 10.0 25.0 0.00 0.00 0.00 58 1018.5
20260902130518 74 276 12.0 19.0 0.00 0.00 0.00 57 1018.5
20260902130019 73 288 7.0 19.0 0.00 0.00 0.00 58 1018.5
20260902125522 73 280 11.0 23.0 0.00 0.00 0.00 58 1018.5
20260902125017 73 218 12.0 25.0 0.00 0.00 0.00 56 1018.5
20260902124517 73 272 12.0 25.0 0.00 0.00 0.00 57 1018.5
20260902124016 73 214 6.0 21.0 0.00 0.00 0.00 60 1018.6
20260902123515 73 221 8.0 21.0 0.00 0.00 0.00 59 1018.6
20260902123014 73 277 8.0 23.0 0.00 0.00 0.00 59 1018.8
20260902122516 72 275 12.0 24.0 0.00 0.00 0.00 59 1018.8
20260902122013 73 144 12.0 24.0 0.00 0.00 0.00 60 1018.8
20260902121513 71 239 11.0 24.0 0.00 0.00 0.00 62 1018.8
20260902121012 73 238 8.0 21.0 0.00 0.00 0.00 60 1018.8
20260902120512 72 233 8.0 20.0 0.00 0.00 0.00 63 1018.9
20260902120011 72 249 10.0 20.0 0.00 0.00 0.00 63 1018.9
20260902115514 72 257 11.0 23.0 0.00 0.00 0.00 63 1018.9
20260902115012 72 293 10.0 23.0 0.00 0.00 0.00 63 1018.9
20260902114513 72 298 10.0 16.0 0.00 0.00 0.00 64 1018.9
20260902114009 71 280 6.0 15.0 0.00 0.00 0.00 66 1019.0
20260902113610 71 296 9.0 22.0 0.00 0.00 0.00 64 1019.0
20260902113008 71 299 10.0 24.0 0.00 0.00 0.00 65 1019.0
20260902112610 71 296 9.0 24.0 0.00 0.00 0.00 65 1019.0
20260902112009 71 203 10.0 17.0 0.00 0.00 0.00 65 1019.0
20260902111507 70 269 7.0 16.0 0.00 0.00 0.00 66 1019.1
20260902111007 69 307 7.0 16.0 0.00 0.00 0.00 68 1019.1
20260902110507 69 307 9.0 16.0 0.00 0.00 0.00 68 1019.0
20260902110008 69 309 3.0 13.0 0.00 0.00 0.00 68 1019.1
20260902105507 69 327 3.0 17.0 0.00 0.00 0.00 68 1019.1
20260902105006 69 296 7.0 18.0 0.00 0.00 0.00 68 1019.2
20260902104505 68 254 11.0 18.0 0.00 0.00 0.00 68 1019.2
20260902104005 67 311 8.0 15.0 0.00 0.00 0.00 70 1019.1
20260902103504 67 323 6.0 15.0 0.00 0.00 0.00 70 1019.2
20260902103006 68 296 8.0 16.0 0.00 0.00 0.00 70 1019.2
20260902102504 68 340 8.0 16.0 0.00 0.00 0.00 70 1019.2
20260902101504 68 306 10.0 22.0 0.00 0.00 0.00 69 1019.2
20260902101003 68 295 11.0 22.0 0.00 0.00 0.00 68 1019.3
20260902100504 69 316 11.0 19.0 0.00 0.00 0.00 67 1019.3
20260902100003 70 274 7.0 17.0 0.00 0.00 0.00 67 1019.2
20260902095502 70 267 9.0 17.0 0.00 0.00 0.00 66 1019.2
20260902095002 69 212 7.0 16.0 0.00 0.00 0.00 69 1019.2
20260902094501 68 300 8.0 18.0 0.00 0.00 0.00 69 1019.3
20260902094101 68 336 8.0 18.0 0.00 0.00 0.00 70 1019.3
20260902093605 68 271 9.0 18.0 0.00 0.00 0.00 71 1019.3
20260902093105 69 313 7.0 16.0 0.00 0.00 0.00 69 1019.3
20260902092600 70 311 9.0 16.0 0.00 0.00 0.00 67 1019.3
20260902092103 70 316 6.0 15.0 0.00 0.00 0.00 69 1019.2
20260902091600 71 260 2.0 13.0 0.00 0.00 0.00 67 1019.3
20260902091058 70 284 6.0 17.0 0.00 0.00 0.00 67 1019.3
20260902090557 70 308 7.0 17.0 0.00 0.00 0.00 66 1019.3
20260902090109 69 275 9.0 20.0 0.00 0.00 0.00 69 1019.3
20260902085557 70 251 8.0 20.0 0.00 0.00 0.00 68 1019.3
20260902085055 70 355 7.0 18.0 0.00 0.00 0.00 67 1019.3
20260902084558 70 350 6.0 16.0 0.00 0.00 0.00 67 1019.2
20260902084053 70 288 5.0 16.0 0.00 0.00 0.00 69 1019.2
20260902083552 69 265 3.0 17.0 0.00 0.00 0.00 71 1019.2
20260902083051 68 261 7.0 17.0 0.00 0.00 0.00 72 1019.2
20260902082553 68 275 8.0 15.0 0.00 0.00 0.00 72 1019.2
20260902082050 67 291 8.0 17.0 0.00 0.00 0.00 74 1019.2
20260902081548 68 292 5.0 17.0 0.00 0.00 0.00 74 1019.1
20260902081049 67 241 7.0 18.0 0.00 0.00 0.00 74 1019.1
20260902080551 67 267 9.0 18.0 0.00 0.00 0.00 75 1019.2
20260902080048 67 200 6.0 16.0 0.00 0.00 0.00 74 1019.1
20260902075546 67 287 3.0 16.0 0.00 0.00 0.00 75 1019.1
20260902075046 67 236 3.0 10.0 0.00 0.00 0.00 77 1019.1
20260902074556 66 292 8.0 11.0 0.00 0.00 0.00 75 1019.1
20260902074045 67 309 4.0 11.0 0.00 0.00 0.00 77 1019.1
20260902073542 66 327 4.0 12.0 0.00 0.00 0.00 78 1019.1
20260902073042 66 297 3.0 12.0 0.00 0.00 0.00 79 1019.0
20260902072543 66 261 2.0 13.0 0.00 0.00 0.00 80 1019.0
20260902072039 65 257 1.0 13.0 0.00 0.00 0.00 81 1019.0
20260902071638 64 223 0.0 14.0 0.00 0.00 0.00 82 1018.9
20260902071038 64 292 5.0 14.0 0.00 0.00 0.00 83 1019.0
20260902070538 64 284 4.0 11.0 0.00 0.00 0.00 82 1018.9
20260902070036 64 272 1.0 13.0 0.00 0.00 0.00 84 1018.9
20260902065535 62 248 6.0 13.0 0.00 0.00 0.00 84 1018.9
20260902065034 62 288 4.0 9.0 0.00 0.00 0.00 84 1018.9
20260902064537 62 241 5.0 12.0 0.00 0.00 0.00 85 1018.8
20260902064032 62 267 6.0 11.0 0.00 0.00 0.00 86 1018.8
20260902063529 61 281 3.0 12.0 0.00 0.00 0.00 86 1018.8
20260902063033 61 277 6.0 12.0 0.00 0.00 0.00 86 1018.7
20260902062529 61 278 6.0 13.0 0.00 0.00 0.00 87 1018.7
20260902062029 61 319 6.0 15.0 0.00 0.00 0.00 87 1018.7
20260902061545 60 297 3.0 15.0 0.00 0.00 0.00 88 1018.6
20260902061026 60 268 5.0 13.0 0.00 0.00 0.00 88 1018.7
20260902060523 60 259 0.0 0.0 0.00 0.00 0.00 90 1018.8
20260902060025 59 251 0.0 0.0 0.00 0.00 0.00 89 1018.7
20260902055521 59 259 0.0 0.0 0.00 0.00 0.00 90 1018.7
20260902055021 59 250 0.0 0.0 0.00 0.00 0.00 90 1018.6
20260902054519 58 213 0.0 0.0 0.00 0.00 0.00 91 1018.6
20260902054019 58 263 0.0 9.0 0.00 0.00 0.00 91 1018.6
20260902053519 58 259 4.0 9.0 0.00 0.00 0.00 92 1018.5
20260902053024 58 254 0.0 9.0 0.00 0.00 0.00 92 1018.4
20260902052517 57 234 1.0 9.0 0.00 0.00 0.00 93 1018.5
20260902052016 57 232 0.0 0.0 0.00 0.00 0.00 93 1018.6
20260902051516 56 225 0.0 0.0 0.00 0.00 0.00 93 1018.5
20260902051115 56 225 0.0 0.0 0.00 0.00 0.00 93 1018.4
20260902050514 56 225 0.0 0.0 0.00 0.00 0.00 93 1018.3
20260902050014 56 225 0.0 0.0 0.00 0.00 0.00 93 1018.2
20260902045513 56 225 0.0 0.0 0.00 0.00 0.00 93 1018.2
20260902045011 56 225 0.0 0.0 0.00 0.00 0.00 93 1018.2
20260902044510 56 225 0.0 0.0 0.00 0.00 0.00 93 1018.2
20260902044013 55 225 0.0 0.0 0.00 0.00 0.00 93 1018.2
20260902043509 55 225 0.0 0.0 0.00 0.00 0.00 93 1018.1
20260902043010 55 225 0.0 0.0 0.00 0.00 0.00 93 1018.1
20260902042510 55 225 0.0 0.0 0.00 0.00 0.00 93 1018.0
20260902042009 55 225 0.0 0.0 0.00 0.00 0.00 93 1018.0
20260902041508 55 225 0.0 0.0 0.00 0.00 0.00 94 1017.9
20260902041006 55 225 0.0 0.0 0.00 0.00 0.00 93 1017.9
20260902040507 55 225 0.0 0.0 0.00 0.00 0.00 93 1017.9
20260902040007 55 225 0.0 0.0 0.00 0.00 0.00 93 1017.9
20260902035506 55 229 0.0 0.0 0.00 0.00 0.00 93 1017.9
20260902035006 54 234 0.0 0.0 0.00 0.00 0.00 94 1018.0
20260902034506 54 234 0.0 0.0 0.00 0.00 0.00 93 1017.9
20260902034006 54 234 0.0 0.0 0.00 0.00 0.00 93 1017.9
20260902033505 54 234 0.0 0.0 0.00 0.00 0.00 93 1017.9
20260902033006 54 234 0.0 0.0 0.00 0.00 0.00 93 1017.9
20260902032506 54 233 0.0 0.0 0.00 0.00 0.00 93 1017.9
20260902032005 54 234 0.0 0.0 0.00 0.00 0.00 93 1017.9
20260902031506 54 234 0.0 0.0 0.00 0.00 0.00 93 1018.1
20260902031004 54 234 0.0 0.0 0.00 0.00 0.00 93 1018.1
20260902030004 54 234 0.0 0.0 0.00 0.00 0.00 93 1018.1
20260902025504 54 234 0.0 0.0 0.00 0.00 0.00 93 1018.1
20260902025004 54 234 0.0 0.0 0.00 0.00 0.00 93 1018.1
20260902024503 54 234 0.0 0.0 0.00 0.00 0.00 93 1018.1
20260902024003 54 234 0.0 0.0 0.00 0.00 0.00 93 1018.1
20260902023503 54 234 0.0 0.0 0.00 0.00 0.00 93 1018.2
20260902023003 54 234 0.0 0.0 0.00 0.00 0.00 93 1018.1
20260902022503 54 234 0.0 0.0 0.00 0.00 0.00 93 1018.2
20260902022002 54 234 0.0 0.0 0.00 0.00 0.00 93 1018.1
20260902021502 54 234 0.0 0.0 0.00 0.00 0.00 93 1018.1
20260902021002 54 234 0.0 0.0 0.00 0.00 0.00 93 1018.2
20260902020502 54 234 0.0 0.0 0.00 0.00 0.00 93 1018.2
20260902020002 54 234 0.0 0.0 0.00 0.01 0.00 93 1018.2
20260902015502 54 234 0.0 0.0 0.00 0.01 0.00 93 1018.2
20260902015001 54 234 0.0 0.0 0.00 0.01 0.00 93 1018.2
20260902014504 54 234 0.0 0.0 0.00 0.01 0.00 93 1018.3
20260902014000 53 234 0.0 0.0 0.00 0.01 0.00 93 1018.2
20260902013601 53 234 0.0 0.0 0.00 0.01 0.00 92 1018.2
20260902013106 53 234 0.0 0.0 0.00 0.01 0.00 92 1018.2
20260902012602 53 234 0.0 0.0 0.00 0.01 0.00 92 1018.1
20260902012059 53 234 0.0 0.0 0.00 0.01 0.00 92 1018.1
20260902011559 53 234 0.0 0.0 0.00 0.01 0.00 92 1018.1
20260902011058 54 234 0.0 0.0 0.00 0.01 0.00 92 1018.1
20260902010557 54 234 0.0 0.0 0.00 0.01 0.00 92 1018.1
20260902005556 54 234 0.0 0.0 0.00 0.01 0.00 92 1018.2
20260902005056 54 234 0.0 0.0 0.00 0.01 0.00 92 1018.1
20260902004556 54 234 0.0 0.0 0.00 0.01 0.00 92 1018.1
20260902004055 54 234 0.0 0.0 0.00 0.01 0.00 91 1017.9
20260902003555 54 234 0.0 0.0 0.00 0.01 0.00 91 1018.0
20260902003055 54 234 0.0 0.0 0.00 0.01 0.00 91 1017.9
20260902002553 54 234 0.0 0.0 0.00 0.01 0.00 91 1017.9
20260902002053 54 234 0.0 0.0 0.00 0.01 0.00 91 1017.9
20260902001610 54 234 0.0 0.0 0.00 0.01 0.00 91 1017.9
20260902001055 55 234 0.0 0.0 0.00 0.01 0.00 91 1017.8
20260902000551 55 234 0.0 0.0 0.00 0.01 0.00 91 1017.9
20260902000053 55 234 0.0 0.0 0.00 0.01 0.00 90 1017.9
20260901235551 55 234 0.0 0.0 0.00 0.01 0.00 90 1017.8
20260901235050 55 234 0.0 0.0 0.00 0.01 0.00 90 1017.8
20260901234549 55 234 0.0 0.0 0.00 0.01 0.00 90 1017.8
20260901234049 55 234 0.0 0.0 0.00 0.01 0.00 90 1017.8
20260901233548 56 234 0.0 0.0 0.00 0.01 0.00 90 1017.7
20260901233049 56 234 0.0 0.0 0.00 0.01 0.00 90 1017.8
20260901232547 56 234 0.0 0.0 0.00 0.01 0.00 90 1017.8
20260901232047 56 234 0.0 0.0 0.00 0.01 0.00 90 1017.7
20260901231546 56 234 0.0 0.0 0.00 0.01 0.00 89 1017.8
20260901231046 56 234 0.0 0.0 0.00 0.01 0.00 89 1017.7
20260901230545 56 234 0.0 0.0 0.00 0.01 0.00 89 1017.8
20260901230045 56 234 0.0 0.0 0.00 0.01 0.00 89 1017.8
20260901225043 57 234 0.0 0.0 0.00 0.01 0.00 88 1017.8
20260901224544 57 234 0.0 0.0 0.00 0.01 0.00 87 1017.8
20260901224041 57 234 0.0 0.0 0.00 0.01 0.00 87 1017.8
20260901223541 57 234 0.0 0.0 0.00 0.01 0.00 86 1017.8
20260901223047 58 234 0.0 0.0 0.00 0.01 0.00 86 1017.8
20260901222540 58 234 0.0 0.0 0.00 0.01 0.00 86 1017.8
20260901222040 58 234 0.0 0.0 0.00 0.01 0.00 86 1017.8
20260901221554 58 234 0.0 0.0 0.00 0.01 0.00 86 1017.8
20260901221037 59 234 0.0 0.0 0.00 0.01 0.00 85 1017.8
20260901220535 59 234 0.0 0.0 0.00 0.01 0.00 85 1017.8
20260901220036 59 234 0.0 0.0 0.00 0.01 0.01 85 1017.8
20260901215534 59 234 0.0 0.0 0.00 0.01 0.01 85 1017.8
20260901215035 59 234 0.0 0.0 0.00 0.01 0.01 85 1017.8
20260901214534 59 234 0.0 0.0 0.00 0.01 0.01 85 1017.7
20260901214034 60 234 0.0 0.0 0.00 0.01 0.01 85 1017.7
20260901213536 60 234 0.0 0.0 0.00 0.01 0.01 85 1017.8
20260901213033 60 234 0.0 0.0 0.00 0.01 0.01 85 1017.8
20260901212535 60 234 0.0 0.0 0.00 0.01 0.01 85 1017.8
20260901212034 60 234 0.0 0.0 0.00 0.01 0.01 85 1017.8
20260901211533 60 234 0.0 0.0 0.00 0.01 0.01 85 1017.8
20260901211035 60 234 0.0 0.0 0.00 0.01 0.01 86 1017.8